owner,sensor,date,latitude,longitude,vertical_datum,sea_water_practical_salinity,qcFlag 
NERRS,ioos:station:NOAA.NERRS:wkbfrwq:1,2016-12-01T00:45:00Z,30.4162,-87.8228,2.24,11.7,1111122 
NERRS,ioos:station:NOAA.NERRS:wkbfrwq:1,2016-12-01T01:45:00Z,30.4162,-87.8228,2.38,12.7,1111122 
NERRS,ioos:station:NOAA.NERRS:wkbfrwq:1,2016-12-01T02:45:00Z,30.4162,-87.8228,2.44,13.1,1111122 
NERRS,ioos:station:NOAA.NERRS:wkbfrwq:1,2016-12-01T03:45:00Z,30.4162,-87.8228,2.51,13.4,1111122 
NERRS,ioos:station:NOAA.NERRS:wkbfrwq:1,2016-12-01T05:45:00Z,30.4162,-87.8228,2.49,13.2,1111122 
NERRS,ioos:station:NOAA.NERRS:wkbfrwq:1,2016-12-01T06:45:00Z,30.4162,-87.8228,2.48,13.1,1111122 
NERRS,ioos:station:NOAA.NERRS:wkbfrwq:1,2016-12-01T07:45:00Z,30.4162,-87.8228,2.44,14.3,1111122 
NERRS,ioos:station:NOAA.NERRS:wkbfrwq:1,2016-12-01T08:45:00Z,30.4162,-87.8228,2.35,12.8,1111122 
NERRS,ioos:station:NOAA.NERRS:wkbfrwq:1,2016-12-01T09:45:00Z,30.4162,-87.8228,2.24,11.8,1111122 
NERRS,ioos:station:NOAA.NERRS:wkbfrwq:1,2016-12-01T11:45:00Z,30.4162,-87.8228,2.1,12.0,1111122 
NERRS,ioos:station:NOAA.NERRS:wkbfrwq:1,2016-12-01T12:45:00Z,30.4162,-87.8228,2.04,11.8,1111122 
NERRS,ioos:station:NOAA.NERRS:wkbfrwq:1,2016-12-01T13:45:00Z,30.4162,-87.8228,1.98,11.7,1111122 
NERRS,ioos:station:NOAA.NERRS:wkbfrwq:1,2016-12-01T14:45:00Z,30.4162,-87.8228,1.94,11.7,1111122 
NERRS,ioos:station:NOAA.NERRS:wkbfrwq:1,2016-12-01T15:45:00Z,30.4162,-87.8228,1.91,13.0,1111122 
NERRS,ioos:station:NOAA.NERRS:wkbfrwq:1,2016-12-01T17:45:00Z,30.4162,-87.8228,1.97,12.7,1111122 
NERRS,ioos:station:NOAA.NERRS:wkbfrwq:1,2016-12-01T18:45:00Z,30.4162,-87.8228,2.04,12.2,1111122 
NERRS,ioos:station:NOAA.NERRS:wkbfrwq:1,2016-12-01T19:45:00Z,30.4162,-87.8228,2.1,12.8,1111122 
NERRS,ioos:station:NOAA.NERRS:wkbfrwq:1,2016-12-01T20:45:00Z,30.4162,-87.8228,2.12,13.4,1111122 
NERRS,ioos:station:NOAA.NERRS:wkbfrwq:1,2016-12-01T21:45:00Z,30.4162,-87.8228,2.15,13.2,1111122 
NERRS,ioos:station:NOAA.NERRS:wkbfrwq:1,2016-12-01T22:45:00Z,30.4162,-87.8228,2.19,13.3,1111122 
NERRS,ioos:station:NOAA.NERRS:wkbfrwq:1,2016-12-01T23:45:00Z,30.4162,-87.8228,0.0,13.5,1111122 
NERRS,ioos:station:NOAA.NERRS:wkbfrwq:1,2016-12-02T01:45:00Z,30.4162,-87.8228,2.32,13.5,1111122 
NERRS,ioos:station:NOAA.NERRS:wkbfrwq:1,2016-12-02T02:45:00Z,30.4162,-87.8228,2.36,13.5,1111122 
NERRS,ioos:station:NOAA.NERRS:wkbfrwq:1,2016-12-02T03:45:00Z,30.4162,-87.8228,2.4,13.3,1111122 
NERRS,ioos:station:NOAA.NERRS:wkbfrwq:1,2016-12-02T04:45:00Z,30.4162,-87.8228,2.45,13.2,1111122 
NERRS,ioos:station:NOAA.NERRS:wkbfrwq:1,2016-12-02T05:45:00Z,30.4162,-87.8228,2.42,13.3,1111122 
NERRS,ioos:station:NOAA.NERRS:wkbfrwq:1,2016-12-02T06:45:00Z,30.4162,-87.8228,2.37,13.2,1111122 
NERRS,ioos:station:NOAA.NERRS:wkbfrwq:1,2016-12-02T07:45:00Z,30.4162,-87.8228,0.0,13.2,1111122 
NERRS,ioos:station:NOAA.NERRS:wkbfrwq:1,2016-12-02T08:45:00Z,30.4162,-87.8228,2.27,13.5,1111122 
NERRS,ioos:station:NOAA.NERRS:wkbfrwq:1,2016-12-02T09:45:00Z,30.4162,-87.8228,2.22,13.3,1111122 
NERRS,ioos:station:NOAA.NERRS:wkbfrwq:1,2016-12-02T10:45:00Z,30.4162,-87.8228,2.15,13.1,1111122 
NERRS,ioos:station:NOAA.NERRS:wkbfrwq:1,2016-12-02T11:45:00Z,30.4162,-87.8228,2.06,13.1,1111122 
NERRS,ioos:station:NOAA.NERRS:wkbfrwq:1,2016-12-02T12:45:00Z,30.4162,-87.8228,2.0,12.6,1111122 
NERRS,ioos:station:NOAA.NERRS:wkbfrwq:1,2016-12-02T14:45:00Z,30.4162,-87.8228,1.87,12.3,1111122 
NERRS,ioos:station:NOAA.NERRS:wkbfrwq:1,2016-12-02T15:45:00Z,30.4162,-87.8228,1.83,12.7,1111122 
NERRS,ioos:station:NOAA.NERRS:wkbfrwq:1,2016-12-02T16:45:00Z,30.4162,-87.8228,1.83,13.3,1111122 
NERRS,ioos:station:NOAA.NERRS:wkbfrwq:1,2016-12-02T18:45:00Z,30.4162,-87.8228,1.9,12.7,1111122 
NERRS,ioos:station:NOAA.NERRS:wkbfrwq:1,2016-12-02T19:45:00Z,30.4162,-87.8228,1.95,12.6,1111122 
NERRS,ioos:station:NOAA.NERRS:wkbfrwq:1,2016-12-02T20:45:00Z,30.4162,-87.8228,1.99,13.2,1111122 
NERRS,ioos:station:NOAA.NERRS:wkbfrwq:1,2016-12-02T21:45:00Z,30.4162,-87.8228,2.04,13.0,1111122 
NERRS,ioos:station:NOAA.NERRS:wkbfrwq:1,2016-12-02T22:45:00Z,30.4162,-87.8228,2.11,12.9,1111122 
NERRS,ioos:station:NOAA.NERRS:wkbfrwq:1,2016-12-03T00:45:00Z,30.4162,-87.8228,2.22,13.2,1111122 
NERRS,ioos:station:NOAA.NERRS:wkbfrwq:1,2016-12-03T01:45:00Z,30.4162,-87.8228,2.26,13.1,1111122 
NERRS,ioos:station:NOAA.NERRS:wkbfrwq:1,2016-12-03T02:45:00Z,30.4162,-87.8228,2.3,12.9,1111122 
NERRS,ioos:station:NOAA.NERRS:wkbfrwq:1,2016-12-03T03:45:00Z,30.4162,-87.8228,2.35,12.9,1111122 
NERRS,ioos:station:NOAA.NERRS:wkbfrwq:1,2016-12-03T04:45:00Z,30.4162,-87.8228,2.39,13.0,1111122 
NERRS,ioos:station:NOAA.NERRS:wkbfrwq:1,2016-12-03T05:45:00Z,30.4162,-87.8228,2.41,13.4,1111122 
NERRS,ioos:station:NOAA.NERRS:wkbfrwq:1,2016-12-03T06:45:00Z,30.4162,-87.8228,2.38,13.3,1111122 
NERRS,ioos:station:NOAA.NERRS:wkbfrwq:1,2016-12-03T07:45:00Z,30.4162,-87.8228,2.33,13.2,1111122 
NERRS,ioos:station:NOAA.NERRS:wkbfrwq:1,2016-12-03T08:45:00Z,30.4162,-87.8228,2.25,13.2,1111122 
NERRS,ioos:station:NOAA.NERRS:wkbfrwq:1,2016-12-03T09:45:00Z,30.4162,-87.8228,2.23,13.4,1111122 
NERRS,ioos:station:NOAA.NERRS:wkbfrwq:1,2016-12-03T10:45:00Z,30.4162,-87.8228,2.19,13.6,1111122 
NERRS,ioos:station:NOAA.NERRS:wkbfrwq:1,2016-12-03T11:45:00Z,30.4162,-87.8228,2.08,12.8,1111122 
NERRS,ioos:station:NOAA.NERRS:wkbfrwq:1,2016-12-03T12:45:00Z,30.4162,-87.8228,2.0,13.2,1111122 
NERRS,ioos:station:NOAA.NERRS:wkbfrwq:1,2016-12-03T13:45:00Z,30.4162,-87.8228,1.99,13.5,1111122 
NERRS,ioos:station:NOAA.NERRS:wkbfrwq:1,2016-12-03T14:45:00Z,30.4162,-87.8228,1.97,13.8,1111122 
NERRS,ioos:station:NOAA.NERRS:wkbfrwq:1,2016-12-03T15:45:00Z,30.4162,-87.8228,1.92,13.0,1111122 
NERRS,ioos:station:NOAA.NERRS:wkbfrwq:1,2016-12-03T16:45:00Z,30.4162,-87.8228,1.87,12.8,1111122 
NERRS,ioos:station:NOAA.NERRS:wkbfrwq:1,2016-12-03T17:45:00Z,30.4162,-87.8228,1.85,13.8,1111122 
NERRS,ioos:station:NOAA.NERRS:wkbfrwq:1,2016-12-03T18:45:00Z,30.4162,-87.8228,1.9,13.1,1111122 
NERRS,ioos:station:NOAA.NERRS:wkbfrwq:1,2016-12-03T19:45:00Z,30.4162,-87.8228,1.96,12.3,1111122 
NERRS,ioos:station:NOAA.NERRS:wkbfrwq:1,2016-12-03T20:45:00Z,30.4162,-87.8228,2.01,11.7,1111122 
NERRS,ioos:station:NOAA.NERRS:wkbfrwq:1,2016-12-03T21:45:00Z,30.4162,-87.8228,2.05,11.6,1111122 
NERRS,ioos:station:NOAA.NERRS:wkbfrwq:1,2016-12-03T22:45:00Z,30.4162,-87.8228,2.08,12.1,1111122 
NERRS,ioos:station:NOAA.NERRS:wkbfrwq:1,2016-12-03T23:45:00Z,30.4162,-87.8228,2.13,12.6,1111122 
NERRS,ioos:station:NOAA.NERRS:wkbfrwq:1,2016-12-04T00:45:00Z,30.4162,-87.8228,2.16,12.7,1111122 
NERRS,ioos:station:NOAA.NERRS:wkbfrwq:1,2016-12-04T01:45:00Z,30.4162,-87.8228,2.16,13.3,1111122 
NERRS,ioos:station:NOAA.NERRS:wkbfrwq:1,2016-12-04T03:45:00Z,30.4162,-87.8228,2.27,12.5,1111122 
NERRS,ioos:station:NOAA.NERRS:wkbfrwq:1,2016-12-04T04:45:00Z,30.4162,-87.8228,2.32,12.6,1111122 
NERRS,ioos:station:NOAA.NERRS:wkbfrwq:1,2016-12-04T05:45:00Z,30.4162,-87.8228,2.31,13.0,1111122 
NERRS,ioos:station:NOAA.NERRS:wkbfrwq:1,2016-12-04T06:45:00Z,30.4162,-87.8228,2.35,13.3,1111122 
NERRS,ioos:station:NOAA.NERRS:wkbfrwq:1,2016-12-04T07:45:00Z,30.4162,-87.8228,2.44,12.5,1111122 
NERRS,ioos:station:NOAA.NERRS:wkbfrwq:1,2016-12-04T08:45:00Z,30.4162,-87.8228,2.47,12.9,1111122 
NERRS,ioos:station:NOAA.NERRS:wkbfrwq:1,2016-12-04T09:45:00Z,30.4162,-87.8228,2.45,13.0,1111122 
NERRS,ioos:station:NOAA.NERRS:wkbfrwq:1,2016-12-04T10:45:00Z,30.4162,-87.8228,2.41,12.9,1111122 
NERRS,ioos:station:NOAA.NERRS:wkbfrwq:1,2016-12-04T11:45:00Z,30.4162,-87.8228,2.39,13.1,1111122 
NERRS,ioos:station:NOAA.NERRS:wkbfrwq:1,2016-12-04T14:45:00Z,30.4162,-87.8228,2.46,11.8,1111122 
NERRS,ioos:station:NOAA.NERRS:wkbfrwq:1,2016-12-04T17:45:00Z,30.4162,-87.8228,2.16,11.6,1111122 
NERRS,ioos:station:NOAA.NERRS:wkbfrwq:1,2016-12-04T18:45:00Z,30.4162,-87.8228,2.06,10.3,1111122 
NERRS,ioos:station:NOAA.NERRS:wkbfrwq:1,2016-12-04T19:45:00Z,30.4162,-87.8228,2.12,11.5,1111122 
NERRS,ioos:station:NOAA.NERRS:wkbfrwq:1,2016-12-04T23:45:00Z,30.4162,-87.8228,2.27,11.6,1111122 
NERRS,ioos:station:NOAA.NERRS:wkbfrwq:1,2016-12-05T00:45:00Z,30.4162,-87.8228,2.35,10.4,1111122 
NERRS,ioos:station:NOAA.NERRS:wkbfrwq:1,2016-12-05T01:45:00Z,30.4162,-87.8228,2.34,11.0,1111122 
NERRS,ioos:station:NOAA.NERRS:wkbfrwq:1,2016-12-05T02:45:00Z,30.4162,-87.8228,2.31,11.1,1111122 
NERRS,ioos:station:NOAA.NERRS:wkbfrwq:1,2016-12-05T03:45:00Z,30.4162,-87.8228,2.34,11.7,1111122 
NERRS,ioos:station:NOAA.NERRS:wkbfrwq:1,2016-12-05T04:45:00Z,30.4162,-87.8228,2.41,10.9,1111122 
NERRS,ioos:station:NOAA.NERRS:wkbfrwq:1,2016-12-05T05:45:00Z,30.4162,-87.8228,2.41,10.9,1111122 
NERRS,ioos:station:NOAA.NERRS:wkbfrwq:1,2016-12-05T06:45:00Z,30.4162,-87.8228,2.38,10.8,1111122 
NERRS,ioos:station:NOAA.NERRS:wkbfrwq:1,2016-12-05T07:45:00Z,30.4162,-87.8228,2.39,11.2,1111122 
NERRS,ioos:station:NOAA.NERRS:wkbfrwq:1,2016-12-05T08:45:00Z,30.4162,-87.8228,2.45,11.8,1111122 
NERRS,ioos:station:NOAA.NERRS:wkbfrwq:1,2016-12-05T09:45:00Z,30.4162,-87.8228,2.46,11.6,1111122 
NERRS,ioos:station:NOAA.NERRS:wkbfrwq:1,2016-12-05T10:45:00Z,30.4162,-87.8228,2.45,11.6,1111122 
NERRS,ioos:station:NOAA.NERRS:wkbfrwq:1,2016-12-05T11:45:00Z,30.4162,-87.8228,2.42,11.6,1111122 
NERRS,ioos:station:NOAA.NERRS:wkbfrwq:1,2016-12-05T12:45:00Z,30.4162,-87.8228,2.3,10.8,1111122 
NERRS,ioos:station:NOAA.NERRS:wkbfrwq:1,2016-12-05T13:45:00Z,30.4162,-87.8228,2.17,9.7,1111122 
NERRS,ioos:station:NOAA.NERRS:wkbfrwq:1,2016-12-05T14:45:00Z,30.4162,-87.8228,2.1,10.6,1111122 
NERRS,ioos:station:NOAA.NERRS:wkbfrwq:1,2016-12-05T19:45:00Z,30.4162,-87.8228,2.01,11.9,1111122 
NERRS,ioos:station:NOAA.NERRS:wkbfrwq:1,2016-12-05T23:45:00Z,30.4162,-87.8228,2.24,10.5,1111122 
NERRS,ioos:station:NOAA.NERRS:wkbfrwq:1,2016-12-06T01:45:00Z,30.4162,-87.8228,2.06,7.2,1111122 
NERRS,ioos:station:NOAA.NERRS:wkbfrwq:1,2016-12-06T02:45:00Z,30.4162,-87.8228,2.08,7.4,1111122 
NERRS,ioos:station:NOAA.NERRS:wkbfrwq:1,2016-12-06T03:45:00Z,30.4162,-87.8228,2.23,9.2,1111122 
NERRS,ioos:station:NOAA.NERRS:wkbfrwq:1,2016-12-06T04:45:00Z,30.4162,-87.8228,2.39,8.9,1111122 
NERRS,ioos:station:NOAA.NERRS:wkbfrwq:1,2016-12-06T05:45:00Z,30.4162,-87.8228,2.41,9.2,1111122 
NERRS,ioos:station:NOAA.NERRS:wkbfrwq:1,2016-12-06T06:45:00Z,30.4162,-87.8228,2.41,8.7,1111122 
NERRS,ioos:station:NOAA.NERRS:wkbfrwq:1,2016-12-06T07:45:00Z,30.4162,-87.8228,2.48,9.6,1111122 
NERRS,ioos:station:NOAA.NERRS:wkbfrwq:1,2016-12-06T08:45:00Z,30.4162,-87.8228,2.58,9.6,1111122 
NERRS,ioos:station:NOAA.NERRS:wkbfrwq:1,2016-12-06T09:45:00Z,30.4162,-87.8228,2.65,8.8,1111122 
NERRS,ioos:station:NOAA.NERRS:wkbfrwq:1,2016-12-06T10:45:00Z,30.4162,-87.8228,2.71,8.7,1111122 
NERRS,ioos:station:NOAA.NERRS:wkbfrwq:1,2016-12-06T11:45:00Z,30.4162,-87.8228,2.66,7.9,1111122 
NERRS,ioos:station:NOAA.NERRS:wkbfrwq:1,2016-12-06T12:45:00Z,30.4162,-87.8228,2.65,7.2,1111122 
NERRS,ioos:station:NOAA.NERRS:wkbfrwq:1,2016-12-06T13:45:00Z,30.4162,-87.8228,2.54,5.4,1111122 
NERRS,ioos:station:NOAA.NERRS:wkbfrwq:1,2016-12-06T14:45:00Z,30.4162,-87.8228,2.45,3.7,1111122 
NERRS,ioos:station:NOAA.NERRS:wkbfrwq:1,2016-12-06T15:45:00Z,30.4162,-87.8228,2.39,2.8,1111122 
NERRS,ioos:station:NOAA.NERRS:wkbfrwq:1,2016-12-06T16:45:00Z,30.4162,-87.8228,2.3,2.9,1111122 
NERRS,ioos:station:NOAA.NERRS:wkbfrwq:1,2016-12-06T17:45:00Z,30.4162,-87.8228,2.21,2.5,1111122 
NERRS,ioos:station:NOAA.NERRS:wkbfrwq:1,2016-12-06T18:45:00Z,30.4162,-87.8228,2.13,2.3,1111122 
NERRS,ioos:station:NOAA.NERRS:wkbfrwq:1,2016-12-06T19:45:00Z,30.4162,-87.8228,2.09,2.1,1111122 
NERRS,ioos:station:NOAA.NERRS:wkbfrwq:1,2016-12-06T20:45:00Z,30.4162,-87.8228,2.06,1.9,1111122 
NERRS,ioos:station:NOAA.NERRS:wkbfrwq:1,2016-12-06T21:45:00Z,30.4162,-87.8228,2.04,2.0,1111122 
NERRS,ioos:station:NOAA.NERRS:wkbfrwq:1,2016-12-06T22:45:00Z,30.4162,-87.8228,2.08,2.0,1111122 
NERRS,ioos:station:NOAA.NERRS:wkbfrwq:1,2016-12-06T23:45:00Z,30.4162,-87.8228,2.13,3.2,1111122 
NERRS,ioos:station:NOAA.NERRS:wkbfrwq:1,2016-12-07T00:45:00Z,30.4162,-87.8228,2.2,3.1,1111122 
NERRS,ioos:station:NOAA.NERRS:wkbfrwq:1,2016-12-07T01:45:00Z,30.4162,-87.8228,2.23,3.3,1111122 
NERRS,ioos:station:NOAA.NERRS:wkbfrwq:1,2016-12-07T02:45:00Z,30.4162,-87.8228,2.25,3.9,1111122 
NERRS,ioos:station:NOAA.NERRS:wkbfrwq:1,2016-12-07T03:45:00Z,30.4162,-87.8228,2.22,4.3,1111122 
NERRS,ioos:station:NOAA.NERRS:wkbfrwq:1,2016-12-07T04:45:00Z,30.4162,-87.8228,2.21,2.4,1111122 
NERRS,ioos:station:NOAA.NERRS:wkbfrwq:1,2016-12-07T05:45:00Z,30.4162,-87.8228,2.2,4.7,1111122 
NERRS,ioos:station:NOAA.NERRS:wkbfrwq:1,2016-12-07T06:45:00Z,30.4162,-87.8228,2.21,4.2,1111122 
NERRS,ioos:station:NOAA.NERRS:wkbfrwq:1,2016-12-07T07:45:00Z,30.4162,-87.8228,2.26,4.1,1111122 
NERRS,ioos:station:NOAA.NERRS:wkbfrwq:1,2016-12-07T08:45:00Z,30.4162,-87.8228,2.27,3.9,1111122 
NERRS,ioos:station:NOAA.NERRS:wkbfrwq:1,2016-12-07T09:45:00Z,30.4162,-87.8228,2.27,4.4,1111122 
NERRS,ioos:station:NOAA.NERRS:wkbfrwq:1,2016-12-07T10:45:00Z,30.4162,-87.8228,2.27,4.9,1111122 
NERRS,ioos:station:NOAA.NERRS:wkbfrwq:1,2016-12-07T11:45:00Z,30.4162,-87.8228,2.25,5.0,1111122 
NERRS,ioos:station:NOAA.NERRS:wkbfrwq:1,2016-12-07T12:45:00Z,30.4162,-87.8228,2.22,5.4,1111122 
NERRS,ioos:station:NOAA.NERRS:wkbfrwq:1,2016-12-07T13:45:00Z,30.4162,-87.8228,2.19,5.4,1111122 
NERRS,ioos:station:NOAA.NERRS:wkbfrwq:1,2016-12-07T14:45:00Z,30.4162,-87.8228,2.15,5.6,1111122 
NERRS,ioos:station:NOAA.NERRS:wkbfrwq:1,2016-12-07T15:45:00Z,30.4162,-87.8228,2.13,5.7,1111122 
NERRS,ioos:station:NOAA.NERRS:wkbfrwq:1,2016-12-07T16:45:00Z,30.4162,-87.8228,2.1,5.9,1111122 
NERRS,ioos:station:NOAA.NERRS:wkbfrwq:1,2016-12-07T17:45:00Z,30.4162,-87.8228,2.07,6.0,1111122 
NERRS,ioos:station:NOAA.NERRS:wkbfrwq:1,2016-12-07T18:45:00Z,30.4162,-87.8228,2.04,6.0,1111122 
NERRS,ioos:station:NOAA.NERRS:wkbfrwq:1,2016-12-07T19:45:00Z,30.4162,-87.8228,2.04,5.9,1111122 
NERRS,ioos:station:NOAA.NERRS:wkbfrwq:1,2016-12-07T20:45:00Z,30.4162,-87.8228,2.06,5.4,1111122 
NERRS,ioos:station:NOAA.NERRS:wkbfrwq:1,2016-12-07T21:45:00Z,30.4162,-87.8228,2.12,4.9,1111122 
NERRS,ioos:station:NOAA.NERRS:wkbfrwq:1,2016-12-07T22:45:00Z,30.4162,-87.8228,2.18,4.4,1111122 
NERRS,ioos:station:NOAA.NERRS:wkbfrwq:1,2016-12-07T23:45:00Z,30.4162,-87.8228,2.22,4.8,1111122 
NERRS,ioos:station:NOAA.NERRS:wkbfrwq:1,2016-12-08T00:45:00Z,30.4162,-87.8228,2.26,5.1,1111122 
NERRS,ioos:station:NOAA.NERRS:wkbfrwq:1,2016-12-08T01:45:00Z,30.4162,-87.8228,2.28,4.9,1111122 
NERRS,ioos:station:NOAA.NERRS:wkbfrwq:1,2016-12-08T03:45:00Z,30.4162,-87.8228,2.31,5.3,1111122 
NERRS,ioos:station:NOAA.NERRS:wkbfrwq:1,2016-12-08T04:45:00Z,30.4162,-87.8228,2.31,5.4,1111122 
NERRS,ioos:station:NOAA.NERRS:wkbfrwq:1,2016-12-08T05:45:00Z,30.4162,-87.8228,2.27,5.5,1111122 
NERRS,ioos:station:NOAA.NERRS:wkbfrwq:1,2016-12-08T06:45:00Z,30.4162,-87.8228,2.23,5.3,1111122 
NERRS,ioos:station:NOAA.NERRS:wkbfrwq:1,2016-12-08T07:45:00Z,30.4162,-87.8228,2.23,6.0,1111122 
NERRS,ioos:station:NOAA.NERRS:wkbfrwq:1,2016-12-08T08:45:00Z,30.4162,-87.8228,2.21,6.1,1111122 
NERRS,ioos:station:NOAA.NERRS:wkbfrwq:1,2016-12-08T09:45:00Z,30.4162,-87.8228,2.17,5.7,1111122 
NERRS,ioos:station:NOAA.NERRS:wkbfrwq:1,2016-12-08T10:45:00Z,30.4162,-87.8228,2.13,6.4,1111122 
NERRS,ioos:station:NOAA.NERRS:wkbfrwq:1,2016-12-08T11:45:00Z,30.4162,-87.8228,2.11,6.7,1111122 
NERRS,ioos:station:NOAA.NERRS:wkbfrwq:1,2016-12-08T12:45:00Z,30.4162,-87.8228,2.12,7.0,1111122 
NERRS,ioos:station:NOAA.NERRS:wkbfrwq:1,2016-12-08T13:45:00Z,30.4162,-87.8228,2.14,7.4,1111122 
NERRS,ioos:station:NOAA.NERRS:wkbfrwq:1,2016-12-08T14:45:00Z,30.4162,-87.8228,2.14,7.5,1111122 
NERRS,ioos:station:NOAA.NERRS:wkbfrwq:1,2016-12-08T15:45:00Z,30.4162,-87.8228,2.09,6.5,1111122 
NERRS,ioos:station:NOAA.NERRS:wkbfrwq:1,2016-12-08T16:45:00Z,30.4162,-87.8228,2.01,6.1,1111122 
NERRS,ioos:station:NOAA.NERRS:wkbfrwq:1,2016-12-08T17:45:00Z,30.4162,-87.8228,1.91,4.7,1111122 
NERRS,ioos:station:NOAA.NERRS:wkbfrwq:1,2016-12-08T18:45:00Z,30.4162,-87.8228,1.9,7.1,1111122 
NERRS,ioos:station:NOAA.NERRS:wkbfrwq:1,2016-12-08T19:45:00Z,30.4162,-87.8228,1.91,6.0,1111122 
NERRS,ioos:station:NOAA.NERRS:wkbfrwq:1,2016-12-08T20:45:00Z,30.4162,-87.8228,1.93,6.2,1111122 
NERRS,ioos:station:NOAA.NERRS:wkbfrwq:1,2016-12-08T21:45:00Z,30.4162,-87.8228,1.94,6.8,1111122 
NERRS,ioos:station:NOAA.NERRS:wkbfrwq:1,2016-12-08T22:45:00Z,30.4162,-87.8228,1.99,5.6,1111122 
NERRS,ioos:station:NOAA.NERRS:wkbfrwq:1,2016-12-08T23:45:00Z,30.4162,-87.8228,2.07,4.6,1111122 
NERRS,ioos:station:NOAA.NERRS:wkbfrwq:1,2016-12-09T00:45:00Z,30.4162,-87.8228,2.11,5.8,1111122 
NERRS,ioos:station:NOAA.NERRS:wkbfrwq:1,2016-12-09T02:45:00Z,30.4162,-87.8228,2.07,6.4,1111122 
NERRS,ioos:station:NOAA.NERRS:wkbfrwq:1,2016-12-09T03:45:00Z,30.4162,-87.8228,2.12,5.2,1111122 
NERRS,ioos:station:NOAA.NERRS:wkbfrwq:1,2016-12-09T04:45:00Z,30.4162,-87.8228,0.0,4.7,1111122 
NERRS,ioos:station:NOAA.NERRS:wkbfrwq:1,2016-12-09T06:45:00Z,30.4162,-87.8228,1.97,5.7,1111122 
NERRS,ioos:station:NOAA.NERRS:wkbfrwq:1,2016-12-09T08:45:00Z,30.4162,-87.8228,1.98,5.3,1111122 
NERRS,ioos:station:NOAA.NERRS:wkbfrwq:1,2016-12-09T09:45:00Z,30.4162,-87.8228,1.97,4.6,1111122 
NERRS,ioos:station:NOAA.NERRS:wkbfrwq:1,2016-12-09T10:45:00Z,30.4162,-87.8228,1.93,6.1,1111122 
NERRS,ioos:station:NOAA.NERRS:wkbfrwq:1,2016-12-09T11:45:00Z,30.4162,-87.8228,1.92,6.4,1111122 
NERRS,ioos:station:NOAA.NERRS:wkbfrwq:1,2016-12-09T12:45:00Z,30.4162,-87.8228,1.91,6.5,1111122 
NERRS,ioos:station:NOAA.NERRS:wkbfrwq:1,2016-12-09T13:45:00Z,30.4162,-87.8228,1.92,5.9,1111122 
NERRS,ioos:station:NOAA.NERRS:wkbfrwq:1,2016-12-09T14:45:00Z,30.4162,-87.8228,1.92,5.9,1111122 
NERRS,ioos:station:NOAA.NERRS:wkbfrwq:1,2016-12-09T15:45:00Z,30.4162,-87.8228,1.92,5.3,1111122 
NERRS,ioos:station:NOAA.NERRS:wkbfrwq:1,2016-12-09T16:45:00Z,30.4162,-87.8228,1.94,4.1,1111122 
NERRS,ioos:station:NOAA.NERRS:wkbfrwq:1,2016-12-09T19:45:00Z,30.4162,-87.8228,2.03,4.1,1111122 
NERRS,ioos:station:NOAA.NERRS:wkbfrwq:1,2016-12-09T20:45:00Z,30.4162,-87.8228,2.08,3.8,1111122 
NERRS,ioos:station:NOAA.NERRS:wkbfrwq:1,2016-12-09T21:45:00Z,30.4162,-87.8228,2.14,4.4,1111122 
NERRS,ioos:station:NOAA.NERRS:wkbfrwq:1,2016-12-09T22:45:00Z,30.4162,-87.8228,2.16,5.1,1111122 
NERRS,ioos:station:NOAA.NERRS:wkbfrwq:1,2016-12-09T23:45:00Z,30.4162,-87.8228,2.19,5.4,1111122 
NERRS,ioos:station:NOAA.NERRS:wkbfrwq:1,2016-12-10T00:45:00Z,30.4162,-87.8228,2.21,5.6,1111122 
NERRS,ioos:station:NOAA.NERRS:wkbfrwq:1,2016-12-10T01:45:00Z,30.4162,-87.8228,2.22,6.5,1111122 
NERRS,ioos:station:NOAA.NERRS:wkbfrwq:1,2016-12-10T02:45:00Z,30.4162,-87.8228,2.21,7.3,1111122 
NERRS,ioos:station:NOAA.NERRS:wkbfrwq:1,2016-12-10T03:45:00Z,30.4162,-87.8228,2.18,7.7,1111122 
NERRS,ioos:station:NOAA.NERRS:wkbfrwq:1,2016-12-10T04:45:00Z,30.4162,-87.8228,2.15,7.5,1111122 
NERRS,ioos:station:NOAA.NERRS:wkbfrwq:1,2016-12-10T05:45:00Z,30.4162,-87.8228,2.09,7.4,1111122 
NERRS,ioos:station:NOAA.NERRS:wkbfrwq:1,2016-12-10T07:45:00Z,30.4162,-87.8228,2.02,7.5,1111122 
NERRS,ioos:station:NOAA.NERRS:wkbfrwq:1,2016-12-10T08:45:00Z,30.4162,-87.8228,1.95,7.9,1111122 
NERRS,ioos:station:NOAA.NERRS:wkbfrwq:1,2016-12-10T09:45:00Z,30.4162,-87.8228,1.89,8.7,1111122 
NERRS,ioos:station:NOAA.NERRS:wkbfrwq:1,2016-12-10T10:45:00Z,30.4162,-87.8228,1.86,9.4,1111122 
NERRS,ioos:station:NOAA.NERRS:wkbfrwq:1,2016-12-10T11:45:00Z,30.4162,-87.8228,1.86,10.4,1111122 
NERRS,ioos:station:NOAA.NERRS:wkbfrwq:1,2016-12-10T12:45:00Z,30.4162,-87.8228,1.87,10.3,1111122 
NERRS,ioos:station:NOAA.NERRS:wkbfrwq:1,2016-12-10T13:45:00Z,30.4162,-87.8228,1.9,10.1,1111122 
NERRS,ioos:station:NOAA.NERRS:wkbfrwq:1,2016-12-10T14:45:00Z,30.4162,-87.8228,1.96,9.6,1111122 
NERRS,ioos:station:NOAA.NERRS:wkbfrwq:1,2016-12-10T15:45:00Z,30.4162,-87.8228,2.01,9.4,1111122 
NERRS,ioos:station:NOAA.NERRS:wkbfrwq:1,2016-12-10T16:45:00Z,30.4162,-87.8228,2.05,9.8,1111122 
NERRS,ioos:station:NOAA.NERRS:wkbfrwq:1,2016-12-10T17:45:00Z,30.4162,-87.8228,2.07,9.8,1111122 
NERRS,ioos:station:NOAA.NERRS:wkbfrwq:1,2016-12-10T21:45:00Z,30.4162,-87.8228,2.19,10.1,1111122 
NERRS,ioos:station:NOAA.NERRS:wkbfrwq:1,2016-12-10T22:45:00Z,30.4162,-87.8228,2.24,10.0,1111122 
NERRS,ioos:station:NOAA.NERRS:wkbfrwq:1,2016-12-10T23:45:00Z,30.4162,-87.8228,2.27,11.0,1111122 
NERRS,ioos:station:NOAA.NERRS:wkbfrwq:1,2016-12-11T00:45:00Z,30.4162,-87.8228,2.3,11.4,1111122 
NERRS,ioos:station:NOAA.NERRS:wkbfrwq:1,2016-12-11T01:45:00Z,30.4162,-87.8228,2.35,11.3,1111122 
NERRS,ioos:station:NOAA.NERRS:wkbfrwq:1,2016-12-11T02:45:00Z,30.4162,-87.8228,2.38,11.7,1111122 
NERRS,ioos:station:NOAA.NERRS:wkbfrwq:1,2016-12-11T03:45:00Z,30.4162,-87.8228,2.38,12.4,1111122 
NERRS,ioos:station:NOAA.NERRS:wkbfrwq:1,2016-12-11T04:45:00Z,30.4162,-87.8228,2.35,13.0,1111122 
NERRS,ioos:station:NOAA.NERRS:wkbfrwq:1,2016-12-11T05:45:00Z,30.4162,-87.8228,2.28,12.5,1111122 
NERRS,ioos:station:NOAA.NERRS:wkbfrwq:1,2016-12-11T06:45:00Z,30.4162,-87.8228,2.2,12.3,1111122 
NERRS,ioos:station:NOAA.NERRS:wkbfrwq:1,2016-12-11T07:45:00Z,30.4162,-87.8228,2.11,12.1,1111122 
NERRS,ioos:station:NOAA.NERRS:wkbfrwq:1,2016-12-11T08:45:00Z,30.4162,-87.8228,2.05,12.2,1111122 
NERRS,ioos:station:NOAA.NERRS:wkbfrwq:1,2016-12-11T09:45:00Z,30.4162,-87.8228,2.0,12.6,1111122 
NERRS,ioos:station:NOAA.NERRS:wkbfrwq:1,2016-12-11T10:45:00Z,30.4162,-87.8228,1.95,12.3,1111122 
NERRS,ioos:station:NOAA.NERRS:wkbfrwq:1,2016-12-11T11:45:00Z,30.4162,-87.8228,1.92,12.4,1111122 
NERRS,ioos:station:NOAA.NERRS:wkbfrwq:1,2016-12-11T12:45:00Z,30.4162,-87.8228,1.9,13.4,1111122 
NERRS,ioos:station:NOAA.NERRS:wkbfrwq:1,2016-12-11T13:45:00Z,30.4162,-87.8228,1.91,13.5,1111122 
NERRS,ioos:station:NOAA.NERRS:wkbfrwq:1,2016-12-11T14:45:00Z,30.4162,-87.8228,1.95,13.2,1111122 
NERRS,ioos:station:NOAA.NERRS:wkbfrwq:1,2016-12-11T15:45:00Z,30.4162,-87.8228,2.01,12.9,1111122 
NERRS,ioos:station:NOAA.NERRS:wkbfrwq:1,2016-12-11T16:45:00Z,30.4162,-87.8228,2.08,12.9,1111122 
NERRS,ioos:station:NOAA.NERRS:wkbfrwq:1,2016-12-11T17:45:00Z,30.4162,-87.8228,2.13,13.6,1111122 
NERRS,ioos:station:NOAA.NERRS:wkbfrwq:1,2016-12-11T18:45:00Z,30.4162,-87.8228,2.17,13.3,1111122 
NERRS,ioos:station:NOAA.NERRS:wkbfrwq:1,2016-12-11T19:45:00Z,30.4162,-87.8228,2.19,14.1,1111122 
NERRS,ioos:station:NOAA.NERRS:wkbfrwq:1,2016-12-11T20:45:00Z,30.4162,-87.8228,2.24,13.5,1111122 
NERRS,ioos:station:NOAA.NERRS:wkbfrwq:1,2016-12-11T21:45:00Z,30.4162,-87.8228,2.3,13.0,1111122 
NERRS,ioos:station:NOAA.NERRS:wkbfrwq:1,2016-12-11T22:45:00Z,30.4162,-87.8228,2.37,12.8,1111122 
NERRS,ioos:station:NOAA.NERRS:wkbfrwq:1,2016-12-11T23:45:00Z,30.4162,-87.8228,2.42,13.1,1111122 
NERRS,ioos:station:NOAA.NERRS:wkbfrwq:1,2016-12-12T02:45:00Z,30.4162,-87.8228,2.53,14.6,1111122 
NERRS,ioos:station:NOAA.NERRS:wkbfrwq:1,2016-12-12T03:45:00Z,30.4162,-87.8228,2.52,14.9,1111122 
NERRS,ioos:station:NOAA.NERRS:wkbfrwq:1,2016-12-12T04:45:00Z,30.4162,-87.8228,2.49,15.0,1111122 
NERRS,ioos:station:NOAA.NERRS:wkbfrwq:1,2016-12-12T05:45:00Z,30.4162,-87.8228,2.42,14.6,1111122 
NERRS,ioos:station:NOAA.NERRS:wkbfrwq:1,2016-12-12T06:45:00Z,30.4162,-87.8228,2.33,14.4,1111122 
NERRS,ioos:station:NOAA.NERRS:wkbfrwq:1,2016-12-12T07:45:00Z,30.4162,-87.8228,2.26,14.6,1111122 
NERRS,ioos:station:NOAA.NERRS:wkbfrwq:1,2016-12-12T08:45:00Z,30.4162,-87.8228,2.19,14.5,1111122 
NERRS,ioos:station:NOAA.NERRS:wkbfrwq:1,2016-12-12T09:45:00Z,30.4162,-87.8228,2.12,14.3,1111122 
NERRS,ioos:station:NOAA.NERRS:wkbfrwq:1,2016-12-12T10:45:00Z,30.4162,-87.8228,0.0,13.9,1111122 
NERRS,ioos:station:NOAA.NERRS:wkbfrwq:1,2016-12-12T12:45:00Z,30.4162,-87.8228,1.97,14.8,1111122 
NERRS,ioos:station:NOAA.NERRS:wkbfrwq:1,2016-12-12T13:45:00Z,30.4162,-87.8228,1.96,15.0,1111122 
NERRS,ioos:station:NOAA.NERRS:wkbfrwq:1,2016-12-12T14:45:00Z,30.4162,-87.8228,1.97,15.2,1111122 
NERRS,ioos:station:NOAA.NERRS:wkbfrwq:1,2016-12-12T15:45:00Z,30.4162,-87.8228,2.01,15.1,1111122 
NERRS,ioos:station:NOAA.NERRS:wkbfrwq:1,2016-12-12T16:45:00Z,30.4162,-87.8228,2.11,14.5,1111122 
NERRS,ioos:station:NOAA.NERRS:wkbfrwq:1,2016-12-12T17:45:00Z,30.4162,-87.8228,2.18,14.2,1111122 
NERRS,ioos:station:NOAA.NERRS:wkbfrwq:1,2016-12-12T18:45:00Z,30.4162,-87.8228,2.21,14.9,1111122 